Flag for Austria Past Weather in Tulln an der Donau, Lower Austria, Austria — Yesterday and Last 2 Weeks

Now
70 °F

Partly sunny.


Feels Like: 70 °F
Forecast: 60 / 69 °F
Wind: 1 mph from North

Location: Tulln Airport

Current Time: Jun 26, 2016 at 9:15:09 PM

Latest Report: Jun 26, 2016 at 8:50 PM


Visibility: 28 mi

Pressure: 30.01 "Hg

Humidity: 73%

Dew Point: 61 °F

Location of Tulln an der DonauLocation

Past Weather in Tulln an der Donau — Graph

°F

Tulln an der Donau Temperature Yesterday

Maximum temperature yesterday: 91 °F (at 1:50 PM)
Minimum temperature yesterday: 73 °F (at 10:50 PM)
Average temperature yesterday: 85 °F

High & Low Weather Summary for the Past Weeks

 TemperatureHumidityPressure
High91 °F (Jun 24, 2:50 PM)100% (Jun 15, 9:50 AM)30.30 "Hg (Jun 15, 9:50 AM)
Low54 °F (Jun 21, 5:50 AM)34% (Jun 18, 2:50 PM)29.53 "Hg (Jun 14, 4:50 PM)
Average70 °F69%29.92 "Hg
* Reported Jun 11 7:50 PM — Jun 26 7:50 PM, Tulln an der Donau, Weather by CustomWeather, © 2016

Note: Actual official high and low records may vary slightly from our data, if they occured in-between our weather recording intervals... More about our weather records

Advertising

Tulln an der Donau Weather History for the Previous 24 Hours

Scroll right to see more
 ConditionsComfort  
Time TempWeatherWind HumidityBarometerVisibility
7:50 PM
Sun, Jun 26
72 °FBroken clouds.2 mph69%30.01 "Hg31 mi
6:50 PM72 °FPartly sunny.6 mph73%30.01 "Hg31 mi
5:50 PM73 °FPartly sunny.7 mph69%30.01 "Hg31 mi
4:50 PM77 °FPartly sunny.7 mph57%30.01 "Hg31 mi
3:50 PM79 °FPartly sunny.7 mph54%30.01 "Hg31 mi
2:50 PM77 °FPartly sunny.7 mph61%30.04 "Hg37 mi
1:50 PM73 °FPartly sunny.13 mph69%30.04 "Hg31 mi
12:50 PM72 °FBroken clouds.12 mph69%30.07 "Hg31 mi
11:50 AM73 °FBroken clouds.15 mph65%30.07 "Hg31 mi
10:50 AM72 °FBroken clouds.14 mph73%30.04 "Hg31 mi
9:50 AM68 °FBroken clouds.15 mph78%30.04 "Hg22 mi
8:50 AM66 °FSprinkles. Broken clouds.13 mph88%30.04 "Hg16 mi
7:50 AM66 °FBroken clouds.12 mph88%30.04 "Hg16 mi
6:50 AM66 °FBroken clouds.15 mph88%30.01 "Hg12 mi
5:50 AM66 °FPartly cloudy.10 mph94%30.01 "Hg12 mi
10:50 PM
Sat, Jun 25
73 °FPassing clouds.18 mph65%29.92 "Hg12 mi
9:50 PM82 °FBroken clouds.5 mph58%29.83 "Hg19 mi
Weather by CustomWeather, © 2016

See weather overviewHow to use our weather pages